星链-35806(STARLINK-35806)

导读

STARLINK-35822是美国于2025年11月6日发射的星链卫星,隶属于SpaceX公司主导的星链星座项目。星链项目旨在构建全球卫星互联网星座,为全球偏远、网络欠发达地区提供高速互联网接入服务。该卫星发射后将进入预定轨道,参与星座组网,进一步扩展星链全球覆盖范围,提升星座整体服务能力。

Basic Information
目录编号:
66362
目录名称:
STARLINK-35822
国际标识:
2025-254Q
轨道中心:
EARTH
卫星名称:
星链-35806
卫星全名:
星链-35806(STARLINK-35806)
卫星状态:
在轨 (已飞行303 天)
发射日期:
2025-11-06 UTC
国别 :
美国 (US)
星等 :
--
Orbit Information
数据来源 国际轨道数据
星历时间: 2026-09-05T08:18:46+0800
17小时前
查看轨道信息
半长轴: 6840.81km
偏心率: 0.0001068
轨道倾角: 53.158°
近地点辐角 94.403°
升交点赤经 117.901°
平近点角 265.709°
近地点: 461.942km
远地点: 463.404km
周期: 93.847分钟
每日圈数: 15.344103
Detailed Information
固有亮度:
5
最大亮度:
2.5
卫星平台:
Starlink V1.0
覆盖范围:
全球
运营商:
太空探索技术公司
运营商所在国:
美国
制造商(研发单位):
太空探索技术公司
制造商所在国:
美国
使用方式:
暂无
Satellite Introduction
Starlink 计划是 SpaceX 推出的全球卫星互联网项目,通过发射低轨道卫星,为全球尤其是偏远地区提供高速、低延迟的互联网服务。自 2019 年起,Starlink 已部署数千颗卫星,旨在缩小全球数字鸿沟,推动互联网普及。该项目还为军事、航空等行业提供通信支持,带来广泛经济效益。
2D Orbit Map
3D Orbit Map
Orbit Altitude Analysis Chart
Orbit Inclination Analysis Chart
Orbit Comprehensive Analysis Chart
View Comprehensive Chart
Conjunction Data List
Event ID Objects TCA Miss Dist (km) Collision Risk Probability Collision Risk Index (CRI) Action
CDM_260906-153905-253506-636222
2026-09-06T
15:39:40+0000
2.614 km
极远距离
1.150114E-6 低风险 0.36
CDM_260906-001804-283706-636221
2026-09-06T
00:18:55+0000
2.559 km
极远距离
1.148122E-6 低风险 0.36